Main page
METAR-TAF:

METAR-TAF

Airports :

Oil platform

Troll A, Norway

latitude: 60-38-42N, longitude: 3-43-29E, elevation: 20 m

Current weather observation

The report was made 37 minutes ago, at 17:50 UTC
Wind 52 kt from the West
Temperature 7°C
Humidity 61%
Pressure 990 hPa
Visibility 10 km or more

METAR: ENQA 291750Z AUTO 28052KT 9999NDV FEW031/// BKN034/// BKN050/// 07/00 Q0990 W12/S6

Time: 19:27 (18:27 UTC)


TAF: missing

Weather observations and forecasts of more than 4000 airports (METAR and TAF reports).

The available stations are represented by yellow and red dots on the map.

Hover mouse over dot to see the name of the station.

Then click to see weather observations and forecasts.

To change the map : click on the green buttons with a black cross to zoom in, on the green button with a dash to zoom out, or on the green arrows for adjacent maps.


METAR-TAF: